Wind_Speed
13 13 14 15 15 16 16 17 18 18 19 20 21 21 21 20 21 22 22 23 24 24 25 26 26 26 26 26 27 28 28 28 28 28 28 29 29 29
14 14 14 15 16 17 17 18 18 19 19 20 21 21 21 21 22 23 23 23 24 24 25 25 26 27 27 27 28 27 27 28 28 28 29 30 30 30
15 15 16 17 17 18 19 19 19 20 19 19 21 21 22 23 23 24 25 25 25 25 25 26 26 27 27 27 28 29 29 30 29 29 30 30 30 31
16 16 17 18 18 19 19 19 20 20 20 20 21 22 23 24 24 24 25 25 25 26 26 26 26 26 27 28 28 29 29 29 29 31 31 31 32 33
17 17 18 18 19 19 19 19 19 20 21 21 22 23 23 23 23 23 24 24 24 25 26 27 27 27 27 27 28 28 28 29 30 31 32 33 33 33
18 19 19 19 19 20 20 20 20 21 21 21 21 22 22 22 22 22 23 24 24 25 26 26 26 26 27 27 28 28 29 30 31 32 33 33 33 33
19 20 20 20 20 20 20 20 21 21 22 22 22 22 23 23 23 22 22 23 24 25 25 26 26 26 26 27 28 29 30 31 31 31 31 32 33 34
19 20 20 20 20 20 20 20 21 22 22 22 22 22 23 23 23 22 23 23 24 24 25 26 27 27 27 28 29 30 31 31 31 32 32 33 34 34
20 20 20 20 20 20 20 21 21 21 21 22 22 22 22 23 23 23 23 24 24 25 26 27 28 28 30 31 31 32 32 32 33 33 33 33 34 34
21 21 21 21 21 21 21 22 22 22 22 22 22 22 22 23 23 24 24 25 25 26 26 28 29 29 31 31 32 32 33 33 33 34 33 33 34 34
21 21 22 22 22 22 23 22 22 22 23 23 23 23 23 23 23 24 24 25 25 26 27 28 28 29 31 32 32 32 33 33 33 34 34 34 34 33
22 22 23 23 23 23 23 23 23 23 23 23 23 23 23 23 24 24 25 25 26 27 28 29 30 30 31 32 33 33 34 34 34 34 33 33 34 34
23 24 24 24 24 24 24 24 24 24 24 23 23 24 24 24 24 25 26 27 27 28 29 29 30 31 32 33 33 34 34 34 34 33 33 33 33 33
26 25 25 25 25 25 25 24 24 24 24 24 24 24 24 25 25 26 27 28 29 29 30 31 32 33 34 34 34 33 33 33 32 32 32 33 33 33
27 26 26 25 25 25 25 25 24 25 25 25 25 25 26 26 27 28 29 29 30 31 31 32 33 33 34 34 33 33 32 32 32 32 32 32 32 32
26 26 26 26 26 26 26 27 26 26 25 26 26 26 26 27 28 29 29 30 30 32 32 33 34 34 33 33 32 32 31 31 31 31 31 31 31 31
25 25 25 26 26 26 26 26 26 26 26 26 26 26 27 28 28 29 29 30 31 33 33 33 34 33 33 33 33 32 31 31 31 31 32 32 31 31
25 25 25 25 25 25 26 25 25 25 26 26 27 27 28 28 29 29 30 31 31 32 33 33 33 33 33 33 33 32 32 31 31 31 31 31 30 30
26 25 25 25 25 26 26 26 26 26 26 27 28 29 29 29 30 30 31 31 32 32 32 32 32 32 32 32 31 31 31 31 32 32 32 31 30 30
27 26 26 26 26 27 27 27 27 27 28 29 29 30 30 30 30 31 31 31 32 32 32 32 32 31 31 31 31 31 31 31 31 31 31 31 30 30
28 28 27 28 28 28 28 27 28 28 29 30 30 30 30 30 30 31 31 31 31 32 32 31 31 30 31 31 31 30 30 30 30 29 29 29 28 28
29 29 29 29 29 29 29 28 28 28 29 29 29 30 30 30 31 31 31 31 31 31 31 30 30 30 30 30 30 30 30 30 30 29 28 28 27 26
30 30 30 30 30 30 29 29 28 28 29 29 30 30 30 30 30 31 31 31 31 30 29 29 29 30 30 30 29 29 29 29 28 28 27 27 27 27
Wind_Direction
288 286 287 288 285 284 286 285 282 281 283 284 282 280 279 279 278 276 275 276 276 277 278 278 277 277 278 277 277 278 277 275 275 276 276 276 275 275
289 290 289 288 286 285 284 285 284 283 282 281 282 280 279 278 281 279 278 278 277 277 279 280 280 279 279 279 279 279 277 275 277 279 278 278 276 276
291 290 291 288 285 285 286 287 286 285 282 280 281 280 280 278 279 278 278 278 279 279 279 280 279 280 280 279 278 277 277 277 277 278 280 280 279 278
296 294 292 291 289 288 286 286 286 285 284 282 282 282 282 281 281 280 280 281 280 281 281 280 280 282 281 281 281 281 281 281 280 280 280 280 280 280
295 296 294 293 291 290 288 287 287 289 287 284 283 283 284 284 282 281 283 283 282 282 284 284 284 283 282 285 286 284 284 283 281 280 279 280 281 282
296 296 296 297 295 292 291 291 291 292 292 292 289 287 287 287 286 285 285 285 284 283 284 284 284 284 283 283 283 284 284 282 281 281 280 280 281 282
300 299 296 295 296 296 293 292 293 293 293 294 293 290 288 287 287 287 287 286 286 286 285 285 285 285 285 284 284 286 286 285 284 284 283 283 283 282
301 300 297 295 296 296 294 293 294 294 294 294 293 291 289 288 288 287 288 290 289 288 287 286 286 285 284 284 284 285 286 286 286 285 285 285 284 283
300 298 297 296 297 296 295 294 295 294 294 295 295 293 291 290 289 289 290 291 292 290 287 287 286 286 286 287 287 287 287 287 287 287 286 287 286 286
299 298 297 297 298 296 296 296 295 295 294 293 294 294 293 292 291 290 290 291 291 291 290 290 288 288 288 288 288 288 288 288 287 287 287 287 287 287
300 299 298 298 297 296 296 296 296 298 296 293 292 293 293 292 291 291 292 293 293 292 291 292 291 291 291 291 292 292 291 291 291 289 289 288 288 288
299 300 300 299 297 296 297 297 296 297 296 294 293 293 293 291 291 291 293 294 295 295 294 294 293 293 293 293 293 292 291 291 291 291 291 289 288 289
297 297 298 297 297 296 296 296 297 297 295 294 293 293 293 293 293 293 294 295 295 296 296 296 296 295 296 295 294 293 292 292 291 291 291 289 289 289
294 294 294 295 295 295 295 296 296 295 295 293 293 293 293 293 295 296 296 297 297 297 297 298 298 297 297 296 295 294 293 292 292 292 291 291 290 290
293 292 293 293 293 294 294 294 295 294 294 294 294 295 294 294 296 297 297 297 298 298 299 299 298 298 297 297 296 295 295 293 292 293 293 293 292 291
294 293 294 293 294 293 293 293 294 294 294 295 295 295 296 296 297 298 299 298 298 299 299 300 300 299 299 297 296 296 295 294 293 293 293 293 293 291
296 295 294 294 293 294 294 294 294 293 293 294 294 295 297 298 299 300 299 299 299 300 301 301 301 300 299 298 297 296 295 294 293 292 294 293 291 290
294 294 294 294 294 293 293 293 294 294 294 294 293 295 298 300 301 301 301 301 301 302 302 302 301 300 299 299 298 297 297 297 296 295 295 294 292 291
291 292 292 292 292 292 291 292 293 294 296 296 297 298 299 299 300 300 301 301 302 303 303 303 302 302 301 300 299 298 297 297 296 295 295 294 292 290
289 289 289 289 290 291 291 290 291 294 296 297 298 298 299 299 301 301 301 301 302 303 303 303 303 303 302 301 299 298 297 297 296 295 295 294 291 290
288 289 289 289 288 289 289 290 291 293 294 296 297 299 300 301 302 303 302 302 302 303 304 304 304 304 304 303 301 300 300 298 297 296 296 295 293 291
287 289 289 288 289 289 289 290 291 293 294 296 297 298 299 300 302 303 303 304 303 305 305 305 305 305 306 305 303 302 302 300 299 298 298 297 296 294
287 288 289 288 289 289 288 289 291 293 295 296 297 298 299 300 301 302 303 304 304 305 305 305 306 306 306 307 305 303 302 301 300 300 300 300 298 295
Height
5853 5852 5852 5851 5850 5849 5848 5847 5846 5845 5844 5842 5841 5841 5840 5839 5839 5838 5838 5837 5837 5836 5835 5834 5833 5833 5832 5831 5830 5830 5829 5828 5828 5827 5827 5826 5826 5825
5850 5849 5848 5847 5846 5844 5843 5842 5841 5840 5839 5837 5836 5835 5834 5834 5833 5832 5832 5831 5830 5830 5829 5828 5827 5826 5825 5824 5823 5822 5822 5821 5820 5820 5819 5818 5818 5817
5847 5845 5844 5842 5841 5840 5838 5837 5836 5835 5833 5832 5830 5829 5828 5828 5827 5826 5825 5824 5823 5823 5822 5821 5820 5820 5818 5817 5816 5815 5814 5813 5813 5812 5811 5810 5809 5809
5843 5841 5840 5838 5837 5835 5833 5832 5831 5829 5828 5827 5825 5824 5823 5822 5821 5820 5819 5818 5817 5816 5815 5814 5813 5812 5811 5810 5809 5808 5807 5806 5805 5804 5803 5802 5801 5800
5839 5837 5835 5833 5831 5830 5828 5826 5825 5824 5822 5821 5819 5818 5817 5815 5814 5813 5812 5811 5810 5809 5808 5808 5806 5805 5804 5803 5801 5800 5799 5798 5797 5796 5795 5794 5792 5791
5835 5833 5831 5829 5826 5825 5823 5821 5820 5818 5817 5815 5813 5812 5811 5809 5808 5807 5806 5805 5804 5803 5801 5800 5799 5797 5796 5795 5794 5792 5791 5790 5788 5787 5786 5784 5783 5782
5830 5828 5826 5824 5822 5820 5818 5816 5815 5813 5811 5809 5808 5806 5805 5804 5802 5801 5800 5798 5797 5795 5794 5793 5792 5790 5789 5787 5786 5784 5783 5781 5780 5778 5777 5775 5774 5772
5825 5823 5821 5819 5817 5815 5813 5811 5809 5808 5806 5804 5802 5800 5799 5797 5796 5794 5793 5792 5790 5789 5787 5786 5784 5782 5781 5779 5778 5776 5775 5773 5771 5769 5768 5766 5764 5763
5819 5817 5815 5814 5812 5809 5807 5805 5804 5802 5800 5798 5796 5794 5793 5791 5790 5788 5786 5785 5783 5782 5780 5778 5776 5774 5772 5771 5769 5767 5765 5763 5762 5760 5758 5756 5755 5753
5814 5812 5810 5808 5806 5804 5802 5800 5798 5796 5794 5792 5790 5789 5787 5785 5783 5782 5780 5778 5776 5774 5772 5771 5768 5766 5764 5762 5760 5758 5756 5754 5752 5750 5748 5747 5745 5743
5808 5806 5804 5802 5800 5798 5796 5794 5792 5790 5788 5786 5784 5782 5780 5778 5777 5775 5773 5771 5769 5767 5765 5763 5760 5758 5756 5753 5751 5749 5747 5745 5742 5740 5738 5736 5735 5733
5803 5801 5799 5796 5794 5792 5790 5788 5786 5784 5782 5780 5778 5776 5774 5772 5770 5768 5766 5764 5762 5760 5757 5755 5752 5750 5747 5744 5742 5739 5737 5734 5732 5730 5728 5726 5724 5722
5796 5794 5792 5790 5788 5786 5783 5781 5779 5777 5775 5773 5771 5769 5767 5765 5763 5761 5759 5757 5754 5752 5750 5747 5744 5741 5738 5735 5732 5729 5727 5725 5722 5720 5718 5716 5714 5712
5790 5787 5785 5783 5781 5779 5777 5774 5772 5770 5768 5766 5764 5763 5761 5758 5756 5754 5751 5749 5746 5744 5741 5738 5735 5732 5729 5726 5723 5720 5717 5715 5713 5711 5708 5706 5703 5701
5782 5780 5778 5776 5774 5772 5769 5767 5765 5763 5761 5759 5757 5755 5753 5751 5748 5746 5743 5741 5738 5735 5732 5729 5726 5723 5720 5717 5714 5711 5708 5706 5703 5701 5699 5696 5694 5691
5775 5773 5771 5769 5767 5764 5762 5760 5758 5756 5754 5752 5750 5748 5745 5743 5740 5738 5735 5733 5730 5727 5723 5720 5717 5714 5710 5707 5704 5701 5699 5696 5694 5692 5689 5687 5684 5682
5767 5765 5763 5761 5759 5757 5755 5753 5751 5749 5747 5745 5743 5740 5738 5735 5733 5730 5727 5724 5721 5718 5715 5711 5707 5703 5700 5698 5695 5692 5689 5686 5684 5682 5679 5677 5674 5672
5760 5758 5756 5754 5752 5750 5748 5746 5744 5742 5739 5737 5735 5733 5730 5727 5725 5722 5719 5716 5713 5709 5706 5702 5698 5695 5692 5688 5685 5682 5680 5677 5674 5672 5669 5667 5665 5662
5752 5750 5749 5747 5745 5743 5741 5739 5736 5734 5732 5730 5728 5725 5722 5719 5717 5714 5711 5707 5704 5700 5697 5693 5689 5686 5683 5680 5676 5673 5670 5668 5665 5662 5659 5657 5655 5653
5743 5742 5741 5739 5737 5735 5733 5731 5729 5726 5724 5722 5719 5717 5714 5711 5708 5705 5702 5699 5695 5692 5688 5684 5681 5677 5674 5671 5667 5664 5661 5658 5655 5653 5650 5647 5645 5643
5735 5734 5732 5730 5729 5727 5725 5723 5720 5718 5716 5714 5711 5709 5706 5703 5700 5697 5694 5690 5687 5683 5680 5676 5672 5669 5665 5662 5658 5655 5652 5648 5646 5643 5640 5638 5636 5633
5726 5725 5723 5722 5720 5718 5716 5714 5712 5710 5708 5705 5703 5701 5698 5695 5692 5689 5685 5682 5678 5675 5671 5668 5664 5660 5657 5653 5649 5646 5643 5640 5636 5634 5631 5629 5627 5625
5718 5716 5714 5713 5711 5710 5708 5706 5704 5702 5699 5697 5695 5692 5689 5686 5683 5680 5677 5673 5670 5667 5663 5660 5656 5652 5648 5645 5641 5637 5634 5631 5628 5625 5623 5620 5618 5616